[[{"header":{"parameterUnit":"m.s-1","parameterCategory":1,"la1":30.2991,"la2":30.254,"lo1":-89.0895,"lo2":-89.0444,"dy":0.0017,"dx":0.0017,"nx":28,"ny":28,"refTime":"2024-05-24T09:00:00:Z","depth":0,"parameterNumber":2,"parameterNumberName":"U-component_of_WINDS"},"data":[0,0,0,0,0,0,0,0,0,0,0,0,0,0,0,0,0,0,0,0,0,0,0,0,0,0,0,0,0,0,0,0,0,0,0,0,0,0,0,0,0,0,0,0,0,0,0,0,0,0,0,0,0,0,0,0,0,0,-2.0156,-2.0156,0,-2.0175,-2.0175,-2.0175,-2.016,-2.0159,-2.0159,-2.0158,-2.0177,-2.0178,-2.0179,0,0,0,0,0,0,0,0,0,0,0,0,0,-2.0106,-2.0107,-2.0155,-2.0156,-2.0156,-2.0175,-2.0175,-2.0175,-2.016,-2.0159,-2.0159,-2.0158,-2.0176,-2.0178,-2.0179,0,0,0,0,0,0,0,0,0,0,0,0,0,-2.0126,-2.0107,-2.0155,-2.0151,-2.0151,-2.0175,-2.0175,-2.0175,-2.016,-2.0159,-2.0158,-2.0157,-2.0176,-2.0178,-2.0179,-2.0209,0,0,-2.0184,-2.0185,0,0,0,0,0,0,0,0,-2.0125,-2.0128,-2.0151,-2.0151,-2.0151,-2.0164,-2.0164,-2.0186,-2.016,-2.0157,-2.0158,-2.0157,-2.0173,-2.0175,-2.0181,-2.021,-2.021,-2.0184,-2.0185,-2.0186,-2.0187,0,0,0,0,0,0,0,-2.0124,-2.0127,-2.0163,-2.0152,-2.0151,-2.0148,-2.0149,-2.0168,-2.017,-2.0157,-2.0156,-2.0158,-2.0173,-2.0179,-2.0181,-2.0211,-2.0184,-2.0186,-2.0187,-2.0188,-2.0265,-2.0266,0,0,0,0,0,0,-2.0123,-2.0126,-2.0162,-2.0164,-2.0135,-2.0149,-2.0151,-2.0161,-2.017,-2.017,-2.0159,-2.0157,-2.0177,-2.0179,-2.0182,-2.0217,-2.0186,-2.0188,-2.0189,-2.0264,-2.0265,-2.0266,0,0,0,0,0,0,-2.0122,-2.0126,-2.0162,-2.0145,-2.0149,-2.0151,-2.0162,-2.0162,-2.0168,-2.0172,-2.0172,-2.0165,-2.0176,-2.0179,-2.0202,-2.0217,-2.0188,-2.019,-2.0263,-2.0264,-2.0266,-2.0287,0,0,0,0,0,0,-2.0121,-2.0126,-2.0137,-2.0145,-2.015,-2.0182,-2.0163,-2.0163,-2.0171,-2.0169,-2.0177,-2.0178,-2.0176,-2.02,-2.0204,-2.0219,-2.0191,-2.0261,-2.0263,-2.0265,-2.0285,-2.0289,-2.0292,0,0,0,0,0,-2.0119,-2.0142,-2.0138,-2.0142,-2.0164,-2.0183,-2.0186,-2.0183,-2.0172,-2.0183,-2.0186,-2.0177,-2.0215,-2.0202,-2.0207,-2.0222,-2.026,-2.0263,-2.0265,-2.0283,-2.0288,-2.0292,0,0,0,0,0,0,-2.0136,-2.0143,-2.0138,-2.0165,-2.0173,-2.018,-2.0194,-2.0188,-2.02,-2.0198,-2.0194,-2.0196,-2.022,-2.0224,-2.0209,-2.0252,-2.0236,-2.0239,-2.0248,-2.0253,-2.0257,-2.0255,-2.0193,0,0,0,0,0,-2.0142,-2.0157,-2.0163,-2.0186,-2.0191,-2.0192,-2.02,-2.0197,-2.0206,-2.0209,-2.0213,-2.0222,-2.0236,-2.0245,-2.0257,-2.0286,-2.0287,-2.0299,-2.0303,-2.0306,-2.0308,-2.0324,-2.0329,-2.0274,-2.0274,-2.0274,0,0,-2.0157,-2.0163,-2.0172,-2.019,-2.0196,-2.0211,-2.0195,-2.0212,-2.0223,-2.0212,-2.0233,-2.0237,-2.0246,-2.0272,-2.0283,-2.0276,-2.0324,-2.0309,-2.0311,-2.0312,-2.0327,-2.0332,-2.0336,-2.0276,-2.0275,-2.0275,0,0,-2.019,-2.0196,-2.0216,-2.0223,-2.0233,-2.0234,-2.0238,-2.0246,-2.0248,-2.027,-2.0262,-2.0276,-2.0299,-2.0306,-2.0313,-2.035,-2.0343,-2.0355,-2.0374,-2.0389,-2.0393,-2.0397,-2.041,-2.0415,-2.0357,-2.0357,-2.0358,0,-2.0206,-2.0229,-2.0227,-2.0245,-2.0252,-2.0244,-2.0264,-2.027,-2.0284,-2.0289,-2.0281,-2.0311,-2.0316,-2.0343,-2.0352,-2.0358,-2.0363,-2.0353,-2.0393,-2.0397,-2.04,-2.0413,-2.0417,-2.0359,-2.0359,-2.0358,-2.0358,0,-2.0249,-2.0265,-2.028,-2.0293,-2.0303,-2.0322,-2.0322,-2.0332,-2.0329,-2.0331,-2.0354,-2.036,-2.0374,-2.0381,-2.0378,-2.0408,-2.0402,-2.0394,-2.0378,-2.0407,-2.0418,-2.0423,-2.0361,-2.036,-2.036,-2.0359,0,0,-2.0292,-2.0305,-2.031,-2.0316,-2.0327,-2.0339,-2.0358,-2.0372,-2.0381,-2.0391,-2.0406,-2.0427,-2.0419,-2.0426,-2.0424,-2.0437,-2.0466,-2.0427,-2.0427,-2.0433,-2.0499,-2.0505,-2.0511,-2.0462,-2.0463,-2.0463,-2.0498,0,-2.0326,-2.0358,-2.0357,-2.0387,-2.0402,-2.0394,-2.041,-2.0419,-2.0421,-2.0434,-2.0436,-2.0451,-2.044,-2.0444,-2.0457,-2.046,-2.0479,-2.0458,-2.0475,-2.0476,-2.0473,-2.0517,-2.0523,-2.0556,-2.0503,-2.0504,-2.0504,0,-2.0369,-2.0381,-2.0412,-2.0421,-2.0427,-2.0442,-2.0455,-2.0468,-2.0477,-2.0478,-2.0487,-2.0483,-2.0501,-2.0486,-2.0511,-2.0497,-2.0504,-2.0507,-2.0508,-2.0509,-2.0491,-2.0518,-2.0566,-2.0571,-2.0511,-2.0511,-2.051,0,-2.0397,-2.0421,-2.0443,-2.0449,-2.046,-2.047,-2.0475,-2.0483,-2.0492,-2.0504,-2.0509,-2.0523,-2.053,-2.054,-2.054,-2.0529,-2.0566,-2.055,-2.0567,-2.0567,-2.0574,-2.0574,-2.0623,-2.058,-2.058,-2.058,-2.058,0,-2.0435,-2.0454,-2.0456,-2.0469,-2.0491,-2.049,-2.0511,-2.0515,-2.0523,-2.0537,-2.0531,-2.0545,-2.0544,-2.0557,-2.0557,-2.0578,-2.0582,-2.0583,-2.0582,-2.0583,-2.0583,-2.0587,-2.0584,-2.0582,-2.0581,-2.0581,-2.0581,0,-2.0469,-2.0471,-2.0495,-2.0503,-2.0506,-2.0522,-2.0529,-2.0542,-2.0544,-2.0562,-2.0566,-2.0569,-2.0585,-2.0586,-2.0604,-2.0604,-2.063,-2.0627,-2.0626,-2.0626,-2.0642,-2.064,-2.0695,-2.0702,-2.0656,-2.0656,-2.0656,0,-2.0492,-2.0507,-2.0518,-2.0527,-2.0533,-2.0548,-2.0557,-2.0556,-2.0566,-2.0578,-2.0589,-2.0604,-2.0616,-2.0642,-2.0646,-2.0659,-2.0657,-2.0675,-2.0659,-2.0659,-2.0656,-2.0655,-2.0656,-2.0678,-2.0678,-2.0679,-2.0679,0,-2.0534,-2.0534,-2.0547,-2.0561,-2.0572,-2.0583,-2.0593,-2.0601,-2.0601,-2.0613,-2.0629,-2.0638,-2.0657,-2.0672,-2.0685,-2.069,-2.0685,-2.0685,-2.0689,-2.0689,-2.0688,-2.0688,-2.0634,-2.0683,-2.0683,-2.0682,-2.0682,-2.0682,-2.0563,-2.0576,-2.0585,-2.06,-2.0608,-2.0618,-2.063,-2.0634,-2.0648,-2.0663,-2.0662,-2.068,-2.0689,-2.0707,-2.0713,-2.0727,-2.072,-2.0727,-2.0728,-2.073,-2.0731,-2.0687,-2.0729,-2.0729,-2.0729,-2.0729,-2.0729,0,-2.0603,-2.0609,-2.0623,-2.0638,-2.0649,-2.0644,-2.0655,-2.0665,-2.0681,-2.069,-2.0702,-2.0721,-2.0736,-2.0741,-2.0755,-2.0765,-2.0763,-2.0769,-2.0768,-2.0769,-2.0736,-2.0731,-2.077,-2.077,-2.077,-2.077,-2.077,-2.077,-2.0626,-2.0647,-2.0649,-2.0674,-2.068,-2.0697,-2.0704,-2.0713,-2.072,-2.0741,-2.0754,-2.0757,-2.0765,-2.078,-2.0793,-2.0794,-2.08,-2.0806,-2.0807,-2.0776,-2.0771,-2.0767,-2.0762,-2.0808,-2.0808,-2.0838,-2.0838,-2.0839]},{"header":{"parameterUnit":"m.s-1","parameterCategory":1,"la1":30.2991,"la2":30.254,"lo1":-89.0895,"lo2":-89.0444,"dy":0.0017,"dx":0.0017,"nx":28,"ny":28,"refTime":"2024-05-24T09:00:00:Z","depth":0,"parameterNumber":3,"parameterNumberName":"V-component_of_WINDS"},"data":[0,0,0,0,0,0,0,0,0,0,0,0,0,0,0,0,0,0,0,0,0,0,0,0,0,0,0,0,0,0,0,0,0,0,0,0,0,0,0,0,0,0,0,0,0,0,0,0,0,0,0,0,0,0,0,0,0,0,4.7011,4.701,0,4.6958,4.6957,4.6957,4.6855,4.6853,4.6851,4.6849,4.6796,4.6796,4.6797,0,0,0,0,0,0,0,0,0,0,0,0,0,4.7025,4.7026,4.7011,4.701,4.701,4.6958,4.6957,4.6957,4.6855,4.6853,4.685,4.6848,4.6796,4.6796,4.6797,0,0,0,0,0,0,0,0,0,0,0,0,0,4.7001,4.7026,4.7011,4.6953,4.6947,4.6958,4.6957,4.6956,4.6856,4.6853,4.685,4.6847,4.6796,4.6796,4.6797,4.6861,0,0,4.6799,4.6799,0,0,0,0,0,0,0,0,4.7002,4.7,4.6962,4.6957,4.695,4.691,4.6943,4.6924,4.6857,4.6891,4.6849,4.6846,4.6836,4.6834,4.683,4.6858,4.6856,4.6799,4.6799,4.68,4.68,0,0,0,0,0,0,0,4.7004,4.7002,4.699,4.6962,4.6955,4.693,4.6923,4.6939,4.6881,4.6887,4.688,4.6875,4.6833,4.683,4.6828,4.6855,4.6799,4.68,4.68,4.68,4.6931,4.6934,0,0,0,0,0,0,4.7014,4.7004,4.6992,4.6988,4.6969,4.6932,4.6924,4.6926,4.688,4.6871,4.6877,4.687,4.683,4.6828,4.6826,4.6895,4.68,4.68,4.6801,4.6928,4.6932,4.6935,0,0,0,0,0,0,4.7015,4.7014,4.6994,4.6994,4.699,4.6935,4.6938,4.6927,4.6923,4.6873,4.6862,4.6885,4.6828,4.6825,4.6852,4.6892,4.6801,4.6801,4.6924,4.6929,4.6933,4.7037,0,0,0,0,0,0,4.7016,4.7015,4.7038,4.6995,4.699,4.7021,4.694,4.6928,4.6925,4.6915,4.6877,4.6868,4.6825,4.6852,4.6853,4.6892,4.6802,4.6921,4.6927,4.6932,4.703,4.7044,4.7057,0,0,0,0,0,4.7017,4.707,4.704,4.7039,4.7018,4.7024,4.7021,4.697,4.6928,4.6951,4.6919,4.6869,4.6889,4.6856,4.6856,4.6895,4.6918,4.6925,4.6932,4.7023,4.7042,4.7057,0,0,0,0,0,0,4.712,4.7064,4.7029,4.7071,4.7053,4.7007,4.7034,4.6991,4.6984,4.6975,4.6913,4.6905,4.6941,4.6921,4.6885,4.6954,4.6895,4.6903,4.6965,4.6982,4.6995,4.6998,4.6802,0,0,0,0,0,4.7147,4.7156,4.7107,4.7148,4.7141,4.709,4.709,4.7052,4.7031,4.7023,4.6992,4.6974,4.6976,4.6978,4.6977,4.7027,4.7016,4.7054,4.7068,4.708,4.7086,4.7109,4.7125,4.6958,4.6958,4.6958,0,0,4.7204,4.7175,4.7184,4.7168,4.715,4.716,4.7084,4.7098,4.7105,4.7025,4.7048,4.7026,4.7001,4.704,4.7055,4.7024,4.713,4.7089,4.7098,4.7098,4.7118,4.7134,4.7148,4.6963,4.6962,4.6961,0,0,4.7313,4.7292,4.7323,4.7306,4.7279,4.7244,4.7252,4.7213,4.7194,4.7216,4.7156,4.7164,4.7169,4.7153,4.7145,4.7248,4.7202,4.725,4.7321,4.7344,4.7357,4.7369,4.7403,4.7416,4.7257,4.7257,4.7257,0,4.7387,4.74,4.7345,4.7363,4.7357,4.7285,4.7316,4.7302,4.7277,4.7274,4.724,4.7243,4.7222,4.7255,4.728,4.7277,4.7283,4.7253,4.736,4.7371,4.738,4.7412,4.7426,4.7263,4.7262,4.7262,4.7261,0,4.7491,4.7501,4.753,4.7505,4.7503,4.7528,4.7477,4.7481,4.7444,4.7413,4.7436,4.7408,4.7399,4.7405,4.7369,4.7432,4.7413,4.7371,4.731,4.7403,4.7432,4.7444,4.7271,4.7269,4.7268,4.7266,0,0,4.7661,4.7607,4.7618,4.7605,4.757,4.7577,4.7598,4.7589,4.7593,4.7578,4.7593,4.7599,4.7559,4.755,4.7513,4.7534,4.7614,4.7488,4.7486,4.751,4.7679,4.7709,4.7725,4.7584,4.7586,4.7588,4.768,0,4.776,4.7792,4.7743,4.7786,4.7794,4.7727,4.7745,4.7725,4.7697,4.77,4.7669,4.7673,4.7621,4.7615,4.7633,4.76,4.7646,4.7593,4.7596,4.7596,4.7601,4.774,4.7772,4.7861,4.7691,4.7693,4.7695,0,4.7879,4.7869,4.7912,4.7873,4.7875,4.7892,4.7879,4.7883,4.7859,4.7837,4.7828,4.7783,4.78,4.7744,4.7766,4.7731,4.773,4.7714,4.7716,4.7712,4.7649,4.7737,4.7888,4.7901,4.7712,4.7711,4.771,0,4.7996,4.7993,4.8018,4.801,4.7966,4.798,4.7962,4.7935,4.7933,4.7922,4.7919,4.7911,4.7906,4.79,4.7854,4.7817,4.7881,4.7821,4.7862,4.7863,4.7877,4.7876,4.8027,4.7881,4.788,4.788,4.788,0,4.8109,4.8138,4.807,4.8085,4.8115,4.806,4.8091,4.8067,4.8044,4.8053,4.7995,4.8005,4.7944,4.7947,4.7911,4.7934,4.7933,4.7915,4.7904,4.7919,4.7921,4.7915,4.7906,4.7884,4.7883,4.7882,4.7881,0,4.8244,4.8199,4.8222,4.8179,4.8168,4.8192,4.8155,4.8167,4.8136,4.8148,4.8147,4.8098,4.8098,4.8052,4.8044,4.802,4.8057,4.8037,4.8064,4.8057,4.81,4.8095,4.825,4.8266,4.8112,4.8114,4.8115,0,4.8318,4.8338,4.8297,4.8298,4.8283,4.8287,4.8284,4.823,4.8229,4.8203,4.8219,4.8214,4.8208,4.8212,4.8175,4.8168,4.8145,4.82,4.8144,4.8157,4.8143,4.8141,4.8142,4.8211,4.8213,4.8215,4.8216,0,4.8453,4.843,4.8427,4.8417,4.8414,4.8404,4.8389,4.8394,4.8335,4.8337,4.8336,4.8332,4.8322,4.8318,4.8304,4.8285,4.8241,4.8234,4.8243,4.8256,4.827,4.8261,4.8094,4.823,4.8229,4.8228,4.8227,4.8226,4.8558,4.8572,4.8545,4.8543,4.8527,4.8515,4.8523,4.8493,4.8491,4.8479,4.8448,4.8453,4.8427,4.8404,4.8389,4.8391,4.8364,4.8377,4.838,4.8383,4.8391,4.8272,4.8389,4.8389,4.8388,4.8388,4.8387,0,4.8688,4.8667,4.8667,4.8648,4.8647,4.8605,4.8587,4.8588,4.8593,4.8573,4.8568,4.8567,4.8563,4.8526,4.8517,4.8526,4.8505,4.8525,4.8522,4.8518,4.8417,4.8409,4.8542,4.8542,4.8542,4.8542,4.8542,4.8542,4.8756,4.8777,4.8751,4.8763,4.8742,4.8746,4.8739,4.8727,4.871,4.8712,4.8708,4.8684,4.8657,4.8645,4.8639,4.8628,4.8627,4.8654,4.8636,4.8541,4.8526,4.8512,4.8504,4.8654,4.8654,4.8736,4.8737,4.8738]}]]